TimeCDT,TemperatureF,Dew PointF,Humidity,Sea Level PressureIn,VisibilityMPH,Wind Direction,Wind SpeedMPH,Gust SpeedMPH,PrecipitationIn,Events,Conditions,WindDirDegrees,DateUTC
12:15 AM,15.8,3.2,58,29.94,10.0,North,-9999.0,-,N/A,,Clear,0,2013-03-19 05:15:00
12:35 AM,15.8,3.2,58,29.94,10.0,North,-9999.0,-,N/A,,Partly Cloudy,0,2013-03-19 05:35:00
12:55 AM,15.8,3.2,58,29.94,10.0,North,-9999.0,-,N/A,,Scattered Clouds,0,2013-03-19 05:55:00
1:15 AM,14.0,3.2,62,29.94,10.0,North,-9999.0,-,N/A,,Scattered Clouds,0,2013-03-19 06:15:00
1:35 AM,14.0,3.2,62,29.94,10.0,North,-9999.0,-,N/A,,Partly Cloudy,0,2013-03-19 06:35:00
1:55 AM,14.0,1.4,57,29.95,10.0,North,-9999.0,-,N/A,,Clear,0,2013-03-19 06:55:00
2:15 AM,14.0,3.2,62,29.95,10.0,North,-9999.0,-,N/A,,Clear,0,2013-03-19 07:15:00
2:35 AM,14.0,3.2,62,29.95,10.0,North,-9999.0,-,N/A,,Clear,0,2013-03-19 07:35:00
2:55 AM,12.2,3.2,67,29.97,10.0,North,-9999.0,-,N/A,,Clear,0,2013-03-19 07:55:00
3:15 AM,12.2,3.2,67,29.98,10.0,North,-9999.0,-,N/A,,Clear,0,2013-03-19 08:15:00
3:35 AM,12.2,3.2,67,29.99,10.0,North,-9999.0,-,N/A,,Clear,0,2013-03-19 08:35:00
3:55 AM,12.2,3.2,67,30.00,10.0,North,-9999.0,-,N/A,,Clear,0,2013-03-19 08:55:00
4:15 AM,12.2,1.4,62,30.01,10.0,North,-9999.0,-,N/A,,Clear,0,2013-03-19 09:15:00
4:35 AM,12.2,1.4,62,30.01,10.0,North,-9999.0,-,N/A,,Clear,0,2013-03-19 09:35:00
4:55 AM,12.2,1.4,62,30.01,10.0,North,-9999.0,-,N/A,,Clear,0,2013-03-19 09:55:00
5:15 AM,12.2,3.2,67,30.00,10.0,North,-9999.0,-,N/A,,Clear,0,2013-03-19 10:15:00
5:35 AM,12.2,1.4,62,30.01,10.0,North,-9999.0,-,N/A,,Clear,0,2013-03-19 10:35:00
5:55 AM,12.2,1.4,62,30.02,10.0,North,-9999.0,-,N/A,,Clear,0,2013-03-19 10:55:00
6:15 AM,12.2,1.4,62,30.02,10.0,North,-9999.0,-,N/A,,Clear,0,2013-03-19 11:15:00
6:35 AM,12.2,1.4,62,30.03,10.0,North,-9999.0,-,N/A,,Clear,0,2013-03-19 11:35:00
6:55 AM,12.2,1.4,62,30.04,10.0,North,-9999.0,-,N/A,,Clear,0,2013-03-19 11:55:00
7:15 AM,12.2,1.4,62,30.04,10.0,North,-9999.0,-,N/A,,Clear,0,2013-03-19 12:15:00
7:35 AM,12.2,1.4,62,30.07,10.0,North,-9999.0,-,N/A,,Clear,0,2013-03-19 12:35:00
7:55 AM,12.2,1.4,62,30.07,10.0,North,-9999.0,-,N/A,,Clear,0,2013-03-19 12:55:00
8:15 AM,14.0,1.4,57,30.10,10.0,North,-9999.0,-,N/A,,Clear,0,2013-03-19 13:15:00
8:35 AM,15.8,1.4,53,30.10,10.0,North,-9999.0,-,N/A,,Clear,0,2013-03-19 13:35:00
8:55 AM,15.8,1.4,53,30.10,10.0,North,-9999.0,-,N/A,,Clear,0,2013-03-19 13:55:00
9:15 AM,15.8,3.2,58,30.12,10.0,North,-9999.0,-,N/A,,Clear,0,2013-03-19 14:15:00
9:35 AM,17.6,1.4,49,30.12,10.0,North,-9999.0,-,N/A,,Clear,0,2013-03-19 14:35:00
9:55 AM,17.6,1.4,49,30.13,10.0,North,-9999.0,-,N/A,,Clear,0,2013-03-19 14:55:00
10:15 AM,17.6,1.4,49,30.13,10.0,North,-9999.0,-,N/A,,Clear,0,2013-03-19 15:15:00
10:35 AM,19.4,1.4,46,30.12,10.0,North,-9999.0,-,N/A,,Clear,0,2013-03-19 15:35:00
10:55 AM,19.4,3.2,49,30.12,10.0,North,-9999.0,-,N/A,,Mostly Cloudy,0,2013-03-19 15:55:00
11:15 AM,19.4,3.2,49,30.13,10.0,North,-9999.0,-,N/A,,Mostly Cloudy,0,2013-03-19 16:15:00
11:35 AM,21.2,5.0,50,30.14,10.0,North,-9999.0,-,N/A,,Mostly Cloudy,0,2013-03-19 16:35:00
11:55 AM,21.2,3.2,46,30.14,10.0,North,-9999.0,-,N/A,,Mostly Cloudy,0,2013-03-19 16:55:00
12:15 PM,23.0,5.0,46,30.14,10.0,North,-9999.0,-,N/A,,Mostly Cloudy,0,2013-03-19 17:15:00
12:35 PM,24.8,5.0,43,30.15,10.0,North,-9999.0,-,N/A,,Mostly Cloudy,0,2013-03-19 17:35:00
1:15 PM,24.8,5.0,43,30.15,10.0,North,-9999.0,-,N/A,,Overcast,0,2013-03-19 18:15:00
1:35 PM,24.8,3.2,40,30.15,10.0,North,-9999.0,-,N/A,,Overcast,0,2013-03-19 18:35:00
1:55 PM,26.6,5.0,40,30.15,10.0,North,-9999.0,-,N/A,,Overcast,0,2013-03-19 18:55:00
2:15 PM,26.6,6.8,43,30.15,10.0,North,-9999.0,-,N/A,,Mostly Cloudy,0,2013-03-19 19:15:00
2:35 PM,28.4,6.8,40,30.15,10.0,North,-9999.0,-,N/A,,Partly Cloudy,0,2013-03-19 19:35:00
2:55 PM,28.4,8.6,43,30.15,10.0,North,-9999.0,-,N/A,,Partly Cloudy,0,2013-03-19 19:55:00
3:15 PM,30.2,8.6,40,30.15,10.0,North,-9999.0,-,N/A,,Partly Cloudy,0,2013-03-19 20:15:00
3:35 PM,30.2,8.6,40,30.15,10.0,North,-9999.0,-,N/A,,Scattered Clouds,0,2013-03-19 20:35:00
3:55 PM,30.2,12.2,47,30.15,10.0,North,-9999.0,-,N/A,,Overcast,0,2013-03-19 20:55:00
4:15 PM,30.2,10.4,44,30.15,10.0,North,-9999.0,-,N/A,,Mostly Cloudy,0,2013-03-19 21:15:00
4:35 PM,30.2,12.2,47,30.16,10.0,North,-9999.0,-,N/A,,Partly Cloudy,0,2013-03-19 21:35:00
4:55 PM,28.4,12.2,51,30.18,10.0,North,-9999.0,-,N/A,,Mostly Cloudy,0,2013-03-19 21:55:00
5:15 PM,28.4,10.4,47,30.19,10.0,North,-9999.0,-,N/A,,Overcast,0,2013-03-19 22:15:00
5:35 PM,26.6,10.4,51,30.19,10.0,North,-9999.0,-,N/A,,Overcast,0,2013-03-19 22:35:00
5:55 PM,26.6,8.6,47,30.20,10.0,North,-9999.0,-,N/A,,Overcast,0,2013-03-19 22:55:00
6:15 PM,24.8,8.6,50,30.21,10.0,North,-9999.0,-,N/A,,Overcast,0,2013-03-19 23:15:00
6:35 PM,24.8,8.6,50,30.22,10.0,North,-9999.0,-,N/A,,Overcast,0,2013-03-19 23:35:00
7:15 PM,23.0,8.6,54,30.23,10.0,North,-9999.0,-,N/A,,Overcast,0,2013-03-20 00:15:00
7:35 PM,21.2,8.6,58,30.24,10.0,North,-9999.0,-,N/A,,Overcast,0,2013-03-20 00:35:00
7:55 PM,21.2,6.8,54,30.24,10.0,North,-9999.0,-,N/A,,Scattered Clouds,0,2013-03-20 00:55:00
8:15 PM,19.4,3.2,49,30.25,10.0,North,-9999.0,-,N/A,,Clear,0,2013-03-20 01:15:00
8:35 PM,19.4,5.0,54,30.25,10.0,North,-9999.0,-,N/A,,Clear,0,2013-03-20 01:35:00
8:55 PM,19.4,3.2,49,30.26,10.0,North,-9999.0,-,N/A,,Clear,0,2013-03-20 01:55:00
9:15 PM,19.4,3.2,49,30.26,10.0,North,-9999.0,-,N/A,,Clear,0,2013-03-20 02:15:00
9:35 PM,17.6,3.2,53,30.26,10.0,North,-9999.0,-,N/A,,Clear,0,2013-03-20 02:35:00
9:55 PM,17.6,5.0,58,30.26,10.0,North,-9999.0,-,N/A,,Clear,0,2013-03-20 02:55:00
10:15 PM,17.6,5.0,58,30.27,10.0,North,-9999.0,-,N/A,,Clear,0,2013-03-20 03:15:00
10:35 PM,17.6,5.0,58,30.26,10.0,North,-9999.0,-,N/A,,Clear,0,2013-03-20 03:35:00
10:55 PM,17.6,5.0,58,30.26,10.0,North,-9999.0,-,N/A,,Partly Cloudy,0,2013-03-20 03:55:00
11:15 PM,17.6,6.8,63,30.26,10.0,North,-9999.0,-,N/A,,Mostly Cloudy,0,2013-03-20 04:15:00
11:35 PM,17.6,5.0,58,30.27,10.0,North,-9999.0,-,N/A,,Mostly Cloudy,0,2013-03-20 04:35:00
11:55 PM,17.6,5.0,58,30.27,10.0,North,-9999.0,-,N/A,,Mostly Cloudy,0,2013-03-20 04:55:00